Sheridan, WY

7:17 PM MDT on June 24, 2017 (GMT -0600)
Sheridan County

Weather History for KSHR - January, 2014

Change the Weather History Date:

Wednesday, January 15, 2014

  Actual Average Record
Temperature  
Mean Temperature 36 °F 24 °F  
Max Temperature 50 °F 36 °F 70 °F (1974)
Min Temperature 22 °F 11 °F -25 °F (1930)
Degree Days  
Heating Degree Days 29 41  
Month to date heating degree days 597 624  
Since 1 July heating degree days 3817 3807  
Cooling Degree Days 0 0  
Month to date cooling degree days 0 0  
Year to date cooling degree days 0 0  
Moisture  
Dew Point 22 °F    
Average Humidity 59    
Maximum Humidity 84    
Minimum Humidity 34    
Precipitation  
Precipitation T in 0.02 in 0.37 in (1995)
Month to date precipitation 0.42 0.25  
Year to date precipitation 0.42 0.25  
Sea Level Pressure  
Sea Level Pressure 30.10 in    
Wind  
Wind Speed 15 mph (WNW)    
Max Wind Speed 37 mph    
Max Gust Speed 47 mph    
Visibility 10 miles    
Events Snow    
T = Trace of Precipitation, MM = Missing Value Source: NWS Daily Summary

Daily Weather History Graph

Daily Weather History Graph

Search for Another Location

Airport or City:

Trip Planner

Search our weather history database for the weather conditions in past years. The results will help you decide how hot, cold, wet, or windy it might be!

Date:

Astronomy

Jan. 15, 2014 Rise Set
Actual Time 7:41 AM MST 4:53 PM MST
Civil Twilight 7:09 AM MST 5:26 PM MST
Nautical Twilight 6:33 AM MST 6:02 PM MST
Astronomical Twilight 5:58 AM MST 6:37 PM MST
Moon 4:56 PM MST (1/15) 6:57 AM MST (1/15)
Length of Visible Light 10h 16m
Length of Day
9h 11m
Full, 100% of the Moon is Illuminated
Jan 15
Full
Jan 15
Full
Jan 23
Last Quarter
Jan 30
New
Feb 6
First Quarter

Hourly Weather History & Observations

Time (MST) Temp. Windchill Dew Point Humidity Pressure Visibility Wind Dir Wind Speed Gust Speed Precip Events Conditions
12:53 AM 25.0 °F 20.7 °F 17.1 °F 72% 30.23 in 10.0 mi SSW 3.5 mph - N/A   Clear
1:53 AM 23.0 °F - 17.1 °F 78% 30.20 in 10.0 mi Calm Calm - N/A   Clear
2:53 AM 28.0 °F 24.2 °F 19.0 °F 69% 30.15 in 10.0 mi SSW 3.5 mph - N/A   Clear
3:53 AM 27.0 °F 23.0 °F 19.9 °F 75% 30.13 in 10.0 mi South 3.5 mph - N/A   Clear
4:53 AM 28.9 °F - 21.0 °F 72% 30.11 in 10.0 mi Calm Calm - N/A   Clear
5:53 AM 27.0 °F 23.0 °F 19.0 °F 72% 30.11 in 10.0 mi South 3.5 mph - N/A   Clear
6:53 AM 28.0 °F - 21.0 °F 75% 30.10 in 10.0 mi Calm Calm - N/A   Clear
7:53 AM 30.9 °F 24.3 °F 23.0 °F 72% 30.08 in 10.0 mi West 6.9 mph - N/A   Scattered Clouds
8:53 AM 32.0 °F 28.7 °F 21.9 °F 66% 30.08 in 10.0 mi SSW 3.5 mph - N/A   Clear
9:53 AM 37.9 °F 35.5 °F 23.0 °F 55% 30.06 in 10.0 mi North 3.5 mph - N/A   Clear
10:53 AM 44.1 °F 36.5 °F 23.0 °F 43% 30.04 in 10.0 mi NNW 17.3 mph - N/A   Clear
11:53 AM 46.0 °F 38.3 °F 21.9 °F 39% 30.07 in 10.0 mi NNW 20.7 mph - N/A   Clear
12:53 PM 48.0 °F - 21.0 °F 34% 30.01 in 10.0 mi NW 10.4 mph - N/A   Clear
1:53 PM 46.0 °F 43.9 °F 26.1 °F 46% 29.99 in 10.0 mi NW 4.6 mph - N/A   Clear
2:53 PM 46.9 °F - 21.9 °F 37% 29.98 in 10.0 mi WNW 29.9 mph 40.3 mph N/A   Clear
3:53 PM 45.0 °F 35.4 °F 23.0 °F 42% 30.01 in 10.0 mi WNW 28.8 mph 39.1 mph N/A   Clear
4:53 PM 46.0 °F 36.1 °F 21.0 °F 37% 30.01 in 10.0 mi WNW 34.5 mph 47.2 mph N/A   Clear
5:53 PM 44.1 °F 34.6 °F 21.9 °F 42% 30.05 in 10.0 mi NW 26.5 mph - N/A   Clear
6:53 PM 44.1 °F 34.2 °F 21.9 °F 42% 30.06 in 10.0 mi NW 28.8 mph - N/A   Clear
7:53 PM 41.0 °F 31.1 °F 23.0 °F 49% 30.08 in 10.0 mi NW 23.0 mph - N/A   Clear
8:53 PM 41.0 °F 30.7 °F 23.0 °F 49% 30.09 in 10.0 mi NW 25.3 mph - N/A   Clear
9:53 PM 37.0 °F 26.7 °F 25.0 °F 62% 30.17 in 10.0 mi NNW 19.6 mph 31.1 mph N/A   Clear
10:53 PM 35.1 °F 21.6 °F 21.9 °F 59% 30.23 in 10.0 mi NW 31.1 mph 36.8 mph N/A   Overcast
11:53 PM 35.1 °F 21.6 °F 21.0 °F 57% 30.25 in 8.0 mi NW 31.1 mph 39.1 mph 0.00 in Snow Light Snow